{"data":{"norad_id":25575,"epoch":"2026-09-19T19:40:49.539648Z","epoch_age_seconds":70821,"freshness":"FRESH","line1":"1 25575U 98069F   26262.82001782  .00006637  00000+0  12771-3 0  9994","line2":"2 25575  51.6308 191.7362 0004804 159.3703 200.7480 15.49182662586747","mean_motion":15.49182662,"eccentricity":0.0004804,"inclination_deg":51.6308,"raan_deg":191.7362,"arg_perigee_deg":159.3703,"mean_anomaly_deg":200.748,"bstar":0.00012771,"rev_number":58674,"period_min":92.952240902371,"perigee_km":415.85040720167,"apogee_km":422.38120769907,"semimajor_km":6797.2528074504,"source":"CELESTRAK","updated_at":"2026-09-20T09:00:13.530645Z"}}